Location: ??
(35.7715°N, 139.6257°E)
Time: 11:20:13
(UTC+00:00)

Daily predictions for brighter satellites

Satellite Brightness Start Highest point End
(mag) Time Altitude Azimuth Time Altitude Azimuth Time Altitude Azimuth
Cosmos 2369 Rocket 3.5 18:35:53 37° E 18:35:53 37° E 18:40:25 10° NE
Cosmos 1943 Rocket 4.4 19:03:08 13° N 19:03:08 13° N 19:03:47 10° NNE
DELTA 2 R/B (1) 3.6 19:11:08 74° ENE 19:11:08 74° ENE 19:16:11 10° ENE
Cosmos 2082 Rocket 4.4 19:19:48 12° SSW 19:19:48 12° SSW 19:20:13 10° SSW
Hubble Space Telescope 3.2 19:25:50 14° S 19:25:50 14° S 19:27:08 10° SSE
Meteor 1-31 Rocket 4.5 19:22:13 10° NNE 19:25:47 33° E 19:29:20 10° SSE
Cosmos 1782 3.4 19:31:27 49° SSE 19:31:27 49° SSE 19:34:24 10° S
H-2A R/B 3.2 19:30:20 34° NE 19:31:45 58° E 19:35:27 10° S
CENTAUR R/B 3.9 19:34:48 23° NNW 19:34:48 23° NNW 19:38:32 10° NNE
Cosmos 1570 Rocket 4.2 19:33:47 50° SW 19:33:47 50° SW 19:38:08 10° S
Cosmos 1862 4.1 19:30:44 10° S 19:34:33 51° E 19:38:23 10° NNE
Cosmos 2034 Rocket 4.3 19:35:47 43° WSW 19:35:47 43° WSW 19:40:50 10° SSW
BREEZE-M DEB (TANK) 4.5 19:23:29 25° NW 19:35:42 75° NNE 19:41:24 10° ESE
Cosmos 921 Rocket 3.4 19:34:54 40° N 19:36:22 65° ENE 19:40:48 10° SSE
ATLAS 5 CENTAUR R/B 3.3 19:43:08 10° S 19:46:21 28° ESE 19:49:44 10° NE
Okean 3 Rocket 3.8 19:42:41 10° S 19:47:10 71° E 19:51:42 10° NNE
Cosmos 1151 Rocket 3.3 19:47:18 13° N 19:51:11 69° E 19:55:31 10° SSE
SJ-12 3.8 19:48:32 10° N 19:52:40 72° WNW 19:56:46 10° SSW
Iridium 2 3.5 19:49:46 10° S 19:53:32 69° W 19:54:02 59° NW
Cosmos 1766 Rocket 3.4 19:50:32 10° S 19:54:52 82° W 19:59:13 10° N
Cosmos 1634 Rocket 3.9 19:49:28 10° N 19:55:43 71° W 20:01:52 10° S
ATLAS 3B R/B 3.7 19:55:26 10° S 20:01:30 45° ESE 20:07:47 10° NE
Cosmos 1867 4.3 20:07:31 29° W 20:08:36 32° WSW 20:13:20 10° S
Cosmos 1328 Rocket 3.6 20:04:35 10° N 20:08:58 76° E 20:13:17 10° S
Cosmos 2263 4.4 20:03:45 10° SW 20:09:08 45° WNW 20:14:39 10° N
Cosmos 1503 Rocket 3.9 20:04:00 10° SSW 20:09:11 64° WNW 20:14:29 10° N
COSMO-SKYMED 1 2.5 20:09:52 10° S 20:14:10 69° WSW 20:18:31 10° NNW
FALCON 9 R/B 4.1 19:56:37 22° W 20:14:52 81° SSW 20:21:48 10° ESE
MOS 1-B Rocket 4.2 20:11:47 10° S 20:18:07 50° WSW 20:23:47 10° NNW
Cosmos 1777 Rocket 4.4 20:13:30 10° S 20:18:38 67° ESE 20:23:50 10° NNE
Cosmos 2369 Rocket 3.0 20:17:51 23° W 20:19:21 26° WNW 20:24:00 10° N
Gbstr 26 Del rocket 4.2 20:19:37 20° WSW 20:20:31 22° SW 20:23:54 10° S
Genesis I 4.2 20:21:24 26° W 20:22:31 31° WSW 20:26:04 10° S
Cosmos 1340 Rocket 3.9 20:21:13 10° SSE 20:24:58 46° E 20:28:48 10° NNE
Cosmos 2180 Rocket 4.4 20:21:16 10° N 20:27:26 84° W 20:33:33 10° S
USA 215 3.8 20:21:41 10° ESE 20:27:59 53° NE 20:34:17 10° NW
Cosmos 1408 Rocket 3.4 20:24:23 10° S 20:28:40 75° W 20:32:59 10° N
Meteor 2-8 Rocket 4.4 20:24:09 10° N 20:30:17 77° W 20:36:22 10° S
CZ-3 R/B 3.7 20:20:03 10° SW 20:31:33 28° S 20:36:20 10° ESE
Cosmos 1656 Rocket 4.4 20:28:40 10° WSW 20:33:12 27° WNW 20:37:47 10° N
Cosmos 1812 3.8 20:34:27 18° NW 20:36:10 24° W 20:39:17 10° SW
Cosmos 1743 Rocket 4.0 20:32:59 10° S 20:37:20 67° E 20:41:41 10° NNE
CZ-4C R/B 2.8 20:36:20 10° S 20:39:26 55° W 20:42:31 10° NNW
Meteor PRIRODA 3.5 20:37:15 10° N 20:40:52 74° WNW 20:44:28 10° SSW
CZ-2C R/B 3.1 20:35:55 10° SSW 20:41:04 40° W 20:46:09 10° NNW
Envisat 3.9 20:38:17 10° NNW 20:42:23 25° WNW 20:46:28 10° WSW
Cosmos 1939 Rocket 3.2 20:40:20 10° NNE 20:44:13 67° E 20:48:03 10° S
Cosmos 2098 Rocket 4.4 20:43:50 10° WSW 20:46:21 16° WNW 20:49:11 10° NNW
SMAP 3.7 20:44:13 10° NNE 20:48:50 62° E 20:53:25 10° S
SJ 16-02 1.3 20:46:14 10° SSW 20:50:34 61° WNW 20:54:55 10° N
Cosmos 1515 Rocket 3.5 20:46:56 10° NNW 20:51:15 65° W 20:55:31 10° S
FAST Rocket 3.7 20:50:15 10° S 20:52:54 74° W 20:55:38 10° N
Cosmos 1174 3.5 20:51:34 10° SW 20:54:23 37° WNW 20:57:13 10° NNE
Landsat 5 4.5 20:51:20 10° SSW 20:55:20 31° W 20:59:21 10° NW
BREEZE-M DEB (TANK) 4.2 20:46:13 10° NW 20:57:16 55° NNE 21:00:42 10° ESE
DELTA 2 R/B (1) 3.8 20:51:55 10° W 20:57:19 58° N 21:02:47 10° ENE
SL-4 R/B 3.1 20:54:15 10° SSW 20:57:32 41° SE 21:01:01 10° ENE
DNEPR-1 R/B 4.4 20:53:48 10° NW 20:58:47 54° WSW 21:04:49 10° SSE
Meteor 1-31 Rocket 4.4 20:57:37 10° NNW 20:59:49 15° WNW 21:02:02 10° WSW
NOAA 12 4.1 20:55:37 10° N 21:00:51 67° WNW 21:06:01 10° SSW
Cosmos 1500 Rocket 3.8 21:01:17 10° SSW 21:05:36 51° W 21:09:58 10° N
SL-8 R/B 4.0 21:06:20 10° NW 21:11:06 63° NE 21:15:48 10° ESE
EO 1 Delta rocket 4.3 21:07:16 10° N 21:13:23 87° E 21:18:20 10° S
